Weather in Namsang

Myanmar     20°52′41″N   97°43′53″E
temp.,
°C
wind,
m/s
gust,
m/s
humid.,
%
clouds,
%
prec.,
mm/h
press.,
hPa
HPBL,
m
13 may, thu
thu1300:30+21wnw11725 0.3 100811
03:30+20wsw117725 0.1 100711
06:30+22ssw12740 0.7 1009124
09:30+29ssw144242 0.6 10082037
12:30+33wsw47256 0.6 10053412
15:30+33w67237 0.0 10033255
18:30+27w49361 0.0 1004387
21:30+24w22470 0.0 100644
14 may, fri
fri1400:30+22wsw1152100 0.0 100719
03:30+22nnw11572 0.0 100611
06:30+23ssw12605 0.0 1007105
09:30+30ssw243610 0.0 10072260
12:30+31sw353098 0.0 10042686
15:30+31w253188 0.0 10021612
18:30+26n22495 0.0 100446
21:30+24wnw11542 0.0 100714
15 may, sat
sat1500:30+22sw11594 0.0 100614
03:30+21sw116235 0.0 100611
06:30+23sw12594 0.0 1008103
09:30+32sw243578 0.0 10082425
12:30+34w462438 0.0 10043538
15:30+33wnw672838 0.0 10032458
18:30+27nw35453 0.0 1005153
21:30+24n11578 0.0 100713
16 may, sun
sun1600:30+22nw116537 0.0 100811
03:30+22nnw116425 0.0 100711
06:30+23sw00625 0.1 100975
09:30+32se12365 0.1 10091711
12:30+30wnw3338100 0.3 10071431
15:30+29wsw134340 0.1 1006685
18:30+27nw114999 0.1 100614
21:30+24wsw2156100 0.0 100820
17 may, mon
mon1700:30+23w1159100 0.0 100711
03:30+22w116256 0.0 100711
06:30+24w0058100 0.0 100969
09:30+33ene1334100 0.0 10091817
12:30+30nnw1237100 0.0 1007950
15:30+31s2335100 0.1 10041025
18:30+28wsw2444100 0.1 100484
21:30+25wnw1256100 0.0 100725